Regional Weather Roundup
Issued by NWS Cleveland, OH

Home | Current Version | Previous Version | Text Only | Print | Product List | Glossary Off
Versions: 1 2 3 4 5 6 7 8 9 10 11 12 13 14 15 16 17 18 19 20 21 22 23 24 25 26 27 28 29 30 31 32 33 34 35 36 37 38 39 40 41 42 43 44 45 46 47 48 49 50

000
ASUS41 KCLE 260810
RWRCLE
OHIO REGIONAL WEATHER ROUNDUP
NATIONAL WEATHER SERVICE CLEVELAND, OH
400 AM EDT THU MAY 26 2016

NOTE: "FAIR" INDICATES FEW OR NO CLOUDS BELOW 12,000 FEET WITH NO
SIGNIFICANT WEATHER AND/OR OBSTRUCTIONS TO VISIBILITY.

OHZ001>008-015>018-024>027-034-035-043-044-260900-
   NORTHWEST OHIO

CITY           SKY/WX    TMP DP  RH WIND       PRES   REMARKS
DEFIANCE       CLOUDY    70  62  76 CALM      30.00R
FINDLAY        CLOUDY    68  60  75 S9        30.01S
TOLEDO EXPRESS CLOUDY    69  61  75 SW7       29.99S
TOLEDO EXEC    CLOUDY    70  60  70 S8        30.00S
LIMA           CLOUDY    68  61  78 S7        30.02F
$$

OHZ009>014-019>023-028>033-038-089-260900-
   NORTHEAST OHIO

CITY           SKY/WX    TMP DP  RH WIND       PRES   REMARKS
CLE-HOPKINS    CLOUDY    71  58  63 S10       30.05S
CLE-LAKEFRONT  PTCLDY    71  58  63 S12       30.01F
CUY CO. ARPT   NOT AVBL
LORAIN-ELYRIA  PTCLDY    66  58  75 S6        30.03S
ASHTABULA      PTCLDY    66  56  70 S3        30.06S
AKRON-CANTON   MOCLDY    66  58  75 S8        30.07S
WOOSTER        PTCLDY    64  58  80 S6        30.07S
MANSFIELD      PTCLDY    65  61  87 S7        30.06S
YOUNGSTOWN     CLOUDY    69  55  60 S6        30.07F
$$

OHZ042-051>053-060>062-070>072-077>081-260900-
  SOUTHWEST OHIO

CITY           SKY/WX    TMP DP  RH WIND       PRES   REMARKS
CINC-COVINGTON CLOUDY    66  62  87 S5        30.07S
CINC-LUNKEN    CLOUDY    64  63  96 CALM      30.07F
HAMILTON       MOCLDY    69  63  81 CALM      30.06F
DAYTON         MOCLDY    67  62  84 SW8       30.06F
WRIGHT-PAT AFB MOCLDY    68  65  89 SE5       30.05F
DAYTON GENERAL MOCLDY    66  61  84 S6        30.06S
WILMINGTON     CLOUDY    65  62  90 SW7       30.07S
$$

OHZ036-037-039>041-045>050-054>059-063>069-073>076-082>088-260900-
  CENTRAL AND SOUTHEAST OHIO

CITY           SKY/WX    TMP DP  RH WIND       PRES   REMARKS
COLUMBUS       CLOUDY    67  61  81 S5        30.06S
OSU AIRPORT    NOT AVBL
BOLTON FIELD   PTCLDY    65  63  94 S6        30.07S
RICKENBACK AFB PTCLDY    65  61  86 S5        30.06S
NEWARK         MOCLDY    61  58  90 CALM      30.06F
MARION           N/A    N/A N/A N/A MISG      30.05S
LANCASTER      CLOUDY    67  60  78 S3        30.07S
ZANESVILLE     CLOUDY    70  61  73 S6        30.08S
NEW PHILLY     CLOUDY    69  59  70 SE3       30.08S
$$




USA.gov is the U.S. government's official web portal to all federal, state and local government web resources and services.